| time (UTC) | temp F | wind direction | speed MPH | gust MPH | rain 1hr in | rain 24hr in | rain mn in | humidity % | barometer mb |
| 20260506145230 | 63 | 274 | 1.0 | 5.0 | 0.00 | 0.00 | 0.00 | 80 | 1036.8 |
| 20260506144727 | 64 | 342 | 0.0 | 4.0 | 0.00 | 0.00 | 0.00 | 79 | 1036.7 |
| 20260506144224 | 64 | 314 | 1.0 | 4.0 | 0.00 | 0.00 | 0.00 | 80 | 1036.7 |
| 20260506143721 | 64 | 238 | 6.0 | 6.0 | 0.00 | 0.00 | 0.00 | 79 | 1036.7 |
| 20260506143219 | 64 | 236 | 0.0 | 4.0 | 0.00 | 0.00 | 0.00 | 80 | 1036.9 |
| 20260506142718 | 64 | 209 | 7.0 | 8.0 | 0.00 | 0.00 | 0.00 | 79 | 1037.0 |
| 20260506142215 | 65 | 275 | 1.0 | 4.0 | 0.00 | 0.00 | 0.00 | 79 | 1037.0 |
| 20260506141713 | 64 | 205 | 4.0 | 4.0 | 0.00 | 0.00 | 0.00 | 79 | 1036.9 |
| 20260506141211 | 65 | 234 | 3.0 | 6.0 | 0.00 | 0.00 | 0.00 | 77 | 1036.9 |
| 20260506140709 | 64 | 190 | 1.0 | 4.0 | 0.00 | 0.00 | 0.00 | 79 | 1036.8 |
| 20260506140205 | 64 | 309 | 1.0 | 5.0 | 0.00 | 0.00 | 0.00 | 79 | 1036.7 |
| 20260506135702 | 63 | 200 | 2.0 | 6.0 | 0.00 | 0.00 | 0.00 | 81 | 1037.1 |
| 20260506135158 | 63 | 256 | 3.0 | 4.0 | 0.00 | 0.00 | 0.00 | 81 | 1036.9 |
| 20260506134655 | 63 | 207 | 2.0 | 9.0 | 0.00 | 0.00 | 0.00 | 82 | 1036.9 |
| 20260506134151 | 63 | 244 | 4.0 | 5.0 | 0.00 | 0.00 | 0.00 | 81 | 1036.9 |
| 20260506133648 | 62 | 214 | 3.0 | 5.0 | 0.00 | 0.00 | 0.00 | 83 | 1036.7 |
| 20260506133145 | 62 | 309 | 4.0 | 6.0 | 0.00 | 0.00 | 0.00 | 83 | 1036.9 |
| 20260506132643 | 62 | 277 | 3.0 | 8.0 | 0.00 | 0.00 | 0.00 | 83 | 1036.7 |
| 20260506132139 | 62 | 191 | 1.0 | 2.0 | 0.00 | 0.00 | 0.00 | 84 | 1036.7 |
| 20260506131637 | 61 | 294 | 2.0 | 6.0 | 0.00 | 0.00 | 0.00 | 84 | 1036.9 |
| 20260506131133 | 61 | 15 | 2.0 | 4.0 | 0.00 | 0.00 | 0.00 | 85 | 1036.6 |
| 20260506130630 | 61 | 241 | 2.0 | 6.0 | 0.00 | 0.00 | 0.00 | 85 | 1036.8 |
| 20260506130127 | 61 | 204 | 4.0 | 6.0 | 0.00 | 0.00 | 0.00 | 86 | 1036.7 |
| 20260506125625 | 61 | 244 | 4.0 | 6.0 | 0.00 | 0.00 | 0.00 | 85 | 1036.7 |
| 20260506125123 | 61 | 202 | 2.0 | 4.0 | 0.00 | 0.00 | 0.00 | 86 | 1037.0 |
| 20260506124620 | 61 | 212 | 0.0 | 4.0 | 0.00 | 0.00 | 0.00 | 86 | 1037.1 |
| 20260506124118 | 61 | 279 | 4.0 | 4.0 | 0.00 | 0.00 | 0.00 | 86 | 1037.0 |
| 20260506123616 | 61 | 303 | 4.0 | 4.0 | 0.00 | 0.00 | 0.00 | 85 | 1037.1 |
| 20260506123114 | 61 | 224 | 2.0 | 6.0 | 0.00 | 0.00 | 0.00 | 85 | 1037.3 |
| 20260506122610 | 61 | 216 | 4.0 | 5.0 | 0.00 | 0.00 | 0.00 | 86 | 1037.5 |
| 20260506122108 | 61 | 262 | 1.0 | 4.0 | 0.00 | 0.00 | 0.00 | 87 | 1037.5 |
| 20260506121606 | 61 | 218 | 0.0 | 2.0 | 0.00 | 0.00 | 0.00 | 87 | 1037.3 |
| 20260506121102 | 60 | 311 | 3.0 | 4.0 | 0.00 | 0.00 | 0.00 | 87 | 1037.3 |
| 20260506120600 | 59 | 359 | 0.0 | 3.0 | 0.00 | 0.00 | 0.00 | 89 | 1037.3 |
| 20260506120057 | 59 | 201 | 2.0 | 4.0 | 0.00 | 0.00 | 0.00 | 89 | 1037.3 |
| 20260506115555 | 59 | 57 | 1.0 | 4.0 | 0.00 | 0.00 | 0.00 | 90 | 1037.3 |
| 20260506115053 | 59 | 251 | 3.0 | 5.0 | 0.00 | 0.00 | 0.00 | 90 | 1037.3 |
| 20260506114550 | 58 | 114 | 0.0 | 2.0 | 0.00 | 0.00 | 0.00 | 92 | 1037.2 |
| 20260506114048 | 58 | 197 | 2.0 | 4.0 | 0.00 | 0.00 | 0.00 | 92 | 1037.0 |
| 20260506113546 | 58 | 283 | 0.0 | 4.0 | 0.00 | 0.00 | 0.00 | 92 | 1037.3 |
| 20260506113043 | 58 | 222 | 2.0 | 6.0 | 0.00 | 0.00 | 0.00 | 92 | 1037.1 |
| 20260506112539 | 57 | 189 | 4.0 | 4.0 | 0.00 | 0.00 | 0.00 | 93 | 1037.4 |
| 20260506112037 | 57 | 251 | 3.0 | 5.0 | 0.00 | 0.00 | 0.00 | 94 | 1037.2 |
| 20260506111535 | 56 | 322 | 2.0 | 3.0 | 0.00 | 0.00 | 0.00 | 95 | 1037.1 |
| 20260506111032 | 56 | 35 | 0.0 | 3.0 | 0.00 | 0.00 | 0.00 | 95 | 1037.4 |
| 20260506110530 | 56 | 311 | 3.0 | 3.0 | 0.00 | 0.00 | 0.00 | 95 | 1037.5 |
| 20260506110027 | 56 | 291 | 0.0 | 4.0 | 0.00 | 0.00 | 0.00 | 96 | 1037.2 |
| 20260506105522 | 55 | 247 | 2.0 | 4.0 | 0.00 | 0.00 | 0.00 | 96 | 1037.3 |
| 20260506105020 | 55 | 297 | 0.0 | 2.0 | 0.00 | 0.00 | 0.00 | 96 | 1037.3 |
| 20260506104518 | 55 | 247 | 2.0 | 5.0 | 0.00 | 0.00 | 0.00 | 96 | 1037.1 |
| 20260506104016 | 55 | 264 | 0.0 | 5.0 | 0.00 | 0.00 | 0.00 | 97 | 1037.1 |
| 20260506103513 | 55 | 243 | 2.0 | 5.0 | 0.00 | 0.00 | 0.00 | 97 | 1037.3 |
| 20260506103009 | 54 | 308 | 2.0 | 3.0 | 0.00 | 0.00 | 0.00 | 97 | 1037.2 |
| 20260506102508 | 54 | 287 | 0.0 | 2.0 | 0.00 | 0.00 | 0.00 | 98 | 1037.4 |
| 20260506102005 | 54 | 304 | 3.0 | 4.0 | 0.00 | 0.00 | 0.00 | 98 | 1037.2 |
| 20260506101501 | 53 | 36 | 2.0 | 4.0 | 0.00 | 0.00 | 0.00 | 98 | 1037.2 |
| 20260506100958 | 53 | 244 | 1.0 | 4.0 | 0.00 | 0.00 | 0.00 | 98 | 1037.2 |
| 20260506100457 | 53 | 262 | 2.0 | 2.0 | 0.00 | 0.00 | 0.00 | 98 | 1037.2 |
| 20260506095954 | 53 | 275 | 0.0 | 3.0 | 0.00 | 0.00 | 0.00 | 98 | 1037.2 |
| 20260506095453 | 53 | 262 | 3.0 | 4.0 | 0.00 | 0.00 | 0.00 | 98 | 1037.1 |
| 20260506094948 | 53 | 33 | 1.0 | 4.0 | 0.00 | 0.00 | 0.00 | 98 | 1037.0 |
| 20260506094447 | 53 | 228 | 1.0 | 3.0 | 0.00 | 0.00 | 0.00 | 97 | 1037.0 |
| 20260506093944 | 54 | 43 | 0.0 | 4.0 | 0.00 | 0.00 | 0.00 | 97 | 1037.1 |
| 20260506093442 | 54 | 314 | 3.0 | 3.0 | 0.00 | 0.00 | 0.00 | 97 | 1037.1 |
| 20260506092940 | 54 | 312 | 1.0 | 3.0 | 0.00 | 0.00 | 0.00 | 97 | 1037.0 |
| 20260506092437 | 54 | 289 | 3.0 | 4.0 | 0.00 | 0.00 | 0.00 | 97 | 1037.1 |
| 20260506091934 | 54 | 329 | 2.0 | 4.0 | 0.00 | 0.00 | 0.00 | 96 | 1037.2 |
| 20260506091432 | 54 | 301 | 2.0 | 3.0 | 0.00 | 0.00 | 0.00 | 96 | 1037.2 |
| 20260506090929 | 54 | 98 | 0.0 | 4.0 | 0.00 | 0.00 | 0.00 | 96 | 1037.1 |
| 20260506090426 | 54 | 312 | 3.0 | 5.0 | 0.00 | 0.00 | 0.00 | 96 | 1037.3 |
| 20260506085923 | 54 | 142 | 0.0 | 4.0 | 0.00 | 0.00 | 0.00 | 96 | 1037.4 |
| 20260506085420 | 54 | 22 | 1.0 | 4.0 | 0.00 | 0.00 | 0.00 | 96 | 1037.2 |
| 20260506084916 | 54 | 13 | 2.0 | 4.0 | 0.00 | 0.00 | 0.00 | 96 | 1037.2 |
| 20260506084413 | 54 | 299 | 2.0 | 4.0 | 0.00 | 0.00 | 0.00 | 95 | 1037.4 |
| 20260506083909 | 54 | 332 | 0.0 | 5.0 | 0.00 | 0.00 | 0.00 | 95 | 1037.4 |
| 20260506083407 | 54 | 314 | 3.0 | 3.0 | 0.00 | 0.00 | 0.00 | 95 | 1037.2 |
| 20260506082904 | 54 | 279 | 3.0 | 3.0 | 0.00 | 0.00 | 0.00 | 95 | 1037.4 |
| 20260506082401 | 55 | 294 | 2.0 | 3.0 | 0.00 | 0.00 | 0.00 | 95 | 1037.4 |
| 20260506081856 | 55 | 281 | 2.0 | 3.0 | 0.00 | 0.00 | 0.00 | 95 | 1037.4 |
| 20260506081355 | 55 | 319 | 2.0 | 3.0 | 0.00 | 0.00 | 0.00 | 94 | 1037.3 |
| 20260506080852 | 55 | 290 | 1.0 | 3.0 | 0.00 | 0.00 | 0.00 | 94 | 1037.1 |
| 20260506080349 | 55 | 357 | 3.0 | 3.0 | 0.00 | 0.00 | 0.00 | 94 | 1037.2 |
| 20260506073333 | 55 | 266 | 4.0 | 4.0 | 0.00 | 0.00 | 0.00 | 93 | 1037.6 |
| 20260506072829 | 55 | 264 | 2.0 | 4.0 | 0.00 | 0.00 | 0.00 | 93 | 1037.4 |
| 20260506072327 | 55 | 282 | 2.0 | 3.0 | 0.00 | 0.00 | 0.00 | 92 | 1037.5 |
| 20260506071825 | 55 | 211 | 0.0 | 3.0 | 0.00 | 0.00 | 0.00 | 92 | 1037.5 |
| 20260506071323 | 55 | 304 | 4.0 | 4.0 | 0.00 | 0.00 | 0.00 | 92 | 1037.4 |
| 20260506070819 | 55 | 311 | 2.0 | 3.0 | 0.00 | 0.00 | 0.00 | 92 | 1037.4 |
| 20260506070316 | 55 | 298 | 2.0 | 4.0 | 0.00 | 0.00 | 0.00 | 92 | 1037.4 |
| 20260506062253 | 57 | 260 | 1.0 | 3.0 | 0.00 | 0.00 | 0.00 | 89 | 1037.3 |
| 20260506061749 | 57 | 315 | 2.0 | 3.0 | 0.00 | 0.00 | 0.00 | 88 | 1037.3 |
| 20260506061247 | 57 | 205 | 2.0 | 4.0 | 0.00 | 0.00 | 0.00 | 87 | 1037.4 |
| 20260506060745 | 57 | 237 | 4.0 | 5.0 | 0.00 | 0.00 | 0.00 | 87 | 1037.3 |
| 20260506060242 | 57 | 337 | 1.0 | 3.0 | 0.00 | 0.00 | 0.00 | 87 | 1037.4 |
| 20260506051214 | 59 | 280 | 2.0 | 6.0 | 0.00 | 0.00 | 0.00 | 84 | 1037.7 |
| 20260506050712 | 59 | 317 | 1.0 | 3.0 | 0.00 | 0.00 | 0.00 | 84 | 1037.9 |
| 20260506050209 | 59 | 251 | 3.0 | 4.0 | 0.00 | 0.00 | 0.00 | 84 | 1037.9 |
| 20260506044700 | 59 | 288 | 3.0 | 3.0 | 0.00 | 0.00 | 0.00 | 83 | 1037.9 |
| 20260506044157 | 59 | 279 | 2.0 | 4.0 | 0.00 | 0.00 | 0.00 | 83 | 1037.9 |
| 20260506043654 | 59 | 291 | 2.0 | 3.0 | 0.00 | 0.00 | 0.00 | 82 | 1037.9 |
| 20260506043152 | 59 | 249 | 2.0 | 4.0 | 0.00 | 0.00 | 0.00 | 82 | 1038.1 |
| 20260506042651 | 59 | 297 | 4.0 | 6.0 | 0.00 | 0.00 | 0.00 | 81 | 1037.8 |
| 20260506042149 | 59 | 294 | 1.0 | 3.0 | 0.00 | 0.00 | 0.00 | 81 | 1037.7 |
| 20260506041652 | 60 | 333 | 2.0 | 4.0 | 0.00 | 0.00 | 0.00 | 80 | 1037.8 |
| 20260506041143 | 60 | 260 | 3.0 | 3.0 | 0.00 | 0.00 | 0.00 | 79 | 1038.0 |
| 20260506040641 | 60 | 301 | 5.0 | 5.0 | 0.00 | 0.00 | 0.00 | 79 | 1037.6 |
| 20260506040138 | 60 | 171 | 2.0 | 4.0 | 0.00 | 0.00 | 0.00 | 79 | 1038.0 |
| 20260506035635 | 60 | 250 | 3.0 | 4.0 | 0.00 | 0.00 | 0.00 | 78 | 1038.0 |
| 20260506035131 | 60 | 305 | 3.0 | 4.0 | 0.00 | 0.00 | 0.00 | 77 | 1038.0 |
| 20260506034623 | 60 | 210 | 3.0 | 5.0 | 0.00 | 0.00 | 0.00 | 77 | 1037.9 |
| 20260506034120 | 60 | 318 | 4.0 | 5.0 | 0.00 | 0.00 | 0.00 | 78 | 1037.9 |
| 20260506033617 | 60 | 265 | 3.0 | 3.0 | 0.00 | 0.00 | 0.00 | 77 | 1037.9 |
| 20260506033114 | 60 | 223 | 2.0 | 5.0 | 0.00 | 0.00 | 0.00 | 77 | 1037.9 |
| 20260506032612 | 60 | 228 | 2.0 | 4.0 | 0.00 | 0.00 | 0.00 | 77 | 1037.9 |
| 20260506032108 | 60 | 228 | 3.0 | 4.0 | 0.00 | 0.00 | 0.00 | 77 | 1037.9 |
| 20260506031605 | 60 | 305 | 3.0 | 3.0 | 0.00 | 0.00 | 0.00 | 77 | 1037.7 |
| 20260506031101 | 60 | 263 | 3.0 | 3.0 | 0.00 | 0.00 | 0.00 | 77 | 1037.9 |
| 20260506030600 | 60 | 250 | 2.0 | 4.0 | 0.00 | 0.00 | 0.00 | 76 | 1037.9 |
| 20260506030057 | 60 | 167 | 1.0 | 4.0 | 0.00 | 0.00 | 0.00 | 76 | 1038.0 |
| 20260506025554 | 60 | 253 | 3.0 | 4.0 | 0.00 | 0.00 | 0.00 | 76 | 1037.9 |
| 20260506025050 | 61 | 293 | 2.0 | 5.0 | 0.00 | 0.00 | 0.00 | 75 | 1037.8 |
| 20260506024548 | 61 | 279 | 3.0 | 4.0 | 0.00 | 0.00 | 0.00 | 75 | 1037.7 |
| 20260506024044 | 60 | 291 | 3.0 | 3.0 | 0.00 | 0.00 | 0.00 | 76 | 1037.8 |
| 20260506023540 | 61 | 289 | 2.0 | 5.0 | 0.00 | 0.00 | 0.00 | 74 | 1037.8 |
| 20260506023038 | 61 | 248 | 4.0 | 6.0 | 0.00 | 0.00 | 0.00 | 75 | 1037.8 |
| 20260506022535 | 61 | 315 | 3.0 | 6.0 | 0.00 | 0.00 | 0.00 | 75 | 1037.6 |
| 20260506022033 | 61 | 281 | 3.0 | 4.0 | 0.00 | 0.00 | 0.00 | 75 | 1037.9 |
| 20260506021530 | 61 | 342 | 2.0 | 3.0 | 0.00 | 0.00 | 0.00 | 75 | 1037.6 |
| 20260506021027 | 61 | 198 | 2.0 | 3.0 | 0.00 | 0.00 | 0.00 | 74 | 1037.6 |
| 20260506020525 | 61 | 84 | 2.0 | 4.0 | 0.00 | 0.00 | 0.00 | 74 | 1037.7 |
| 20260506020021 | 61 | 257 | 5.0 | 6.0 | 0.00 | 0.00 | 0.00 | 73 | 1037.5 |
| 20260506015518 | 60 | 241 | 3.0 | 4.0 | 0.00 | 0.00 | 0.00 | 74 | 1037.6 |
| 20260506015015 | 61 | 317 | 3.0 | 3.0 | 0.00 | 0.00 | 0.00 | 74 | 1037.5 |
| 20260506014513 | 61 | 240 | 2.0 | 4.0 | 0.00 | 0.00 | 0.00 | 74 | 1037.6 |
| 20260506014008 | 61 | 296 | 3.0 | 4.0 | 0.00 | 0.00 | 0.00 | 74 | 1037.7 |
| 20260506013507 | 61 | 329 | 2.0 | 4.0 | 0.00 | 0.00 | 0.00 | 74 | 1037.5 |
| 20260506013003 | 61 | 278 | 3.0 | 6.0 | 0.00 | 0.00 | 0.00 | 73 | 1037.3 |
| 20260506012459 | 61 | 202 | 0.0 | 3.0 | 0.00 | 0.00 | 0.00 | 73 | 1037.4 |
| 20260506011956 | 61 | 319 | 1.0 | 4.0 | 0.00 | 0.00 | 0.00 | 72 | 1037.3 |
| 20260506011453 | 61 | 289 | 3.0 | 4.0 | 0.00 | 0.00 | 0.00 | 72 | 1037.2 |
| 20260506010950 | 61 | 261 | 4.0 | 12.0 | 0.00 | 0.00 | 0.00 | 72 | 1037.1 |
| 20260506010449 | 61 | 257 | 2.0 | 4.0 | 0.00 | 0.00 | 0.00 | 72 | 1037.1 |
| 20260506005945 | 62 | 306 | 2.0 | 4.0 | 0.00 | 0.00 | 0.00 | 70 | 1037.1 |
| 20260506005444 | 62 | 325 | 2.0 | 4.0 | 0.00 | 0.00 | 0.00 | 70 | 1037.0 |
| 20260506004944 | 62 | 344 | 1.0 | 3.0 | 0.00 | 0.00 | 0.00 | 70 | 1037.0 |
| 20260506004442 | 62 | 358 | 3.0 | 4.0 | 0.00 | 0.00 | 0.00 | 69 | 1036.7 |
| 20260506003938 | 62 | 262 | 2.0 | 6.0 | 0.00 | 0.00 | 0.00 | 69 | 1036.7 |
| 20260506003435 | 62 | 285 | 3.0 | 5.0 | 0.00 | 0.00 | 0.00 | 68 | 1036.7 |
| 20260506002931 | 63 | 277 | 5.0 | 6.0 | 0.00 | 0.00 | 0.00 | 67 | 1036.6 |
| 20260506002427 | 63 | 342 | 5.0 | 6.0 | 0.00 | 0.00 | 0.00 | 67 | 1036.5 |
| 20260506001922 | 63 | 289 | 2.0 | 3.0 | 0.00 | 0.00 | 0.00 | 68 | 1036.6 |
| 20260506001420 | 63 | 237 | 1.0 | 6.0 | 0.00 | 0.00 | 0.00 | 67 | 1036.5 |
| 20260506000917 | 63 | 24 | 0.0 | 2.0 | 0.00 | 0.00 | 0.00 | 67 | 1036.4 |
| 20260506000416 | 63 | 239 | 2.0 | 5.0 | 0.00 | 0.00 | 0.00 | 67 | 1036.5 |
| 20260505235911 | 63 | 282 | 3.0 | 6.0 | 0.00 | 0.00 | 0.00 | 66 | 1036.3 |
| 20260505235409 | 63 | 197 | 2.0 | 3.0 | 0.00 | 0.00 | 0.00 | 67 | 1036.3 |
| 20260505234906 | 64 | 6 | 0.0 | 3.0 | 0.00 | 0.00 | 0.00 | 67 | 1036.3 |
| 20260505234403 | 64 | 198 | 2.0 | 4.0 | 0.00 | 0.00 | 0.00 | 66 | 1036.3 |
| 20260505233900 | 64 | 326 | 3.0 | 6.0 | 0.00 | 0.00 | 0.00 | 67 | 1036.2 |
| 20260505233358 | 64 | 279 | 2.0 | 5.0 | 0.00 | 0.00 | 0.00 | 66 | 1036.3 |
| 20260505232855 | 65 | 249 | 4.0 | 6.0 | 0.00 | 0.00 | 0.00 | 66 | 1036.1 |
| 20260505232353 | 65 | 260 | 1.0 | 4.0 | 0.00 | 0.00 | 0.00 | 66 | 1036.1 |
| 20260505231849 | 65 | 245 | 4.0 | 5.0 | 0.00 | 0.00 | 0.00 | 65 | 1035.7 |
| 20260505231347 | 66 | 230 | 4.0 | 6.0 | 0.00 | 0.00 | 0.00 | 65 | 1035.7 |
| 20260505230845 | 66 | 29 | 1.0 | 4.0 | 0.00 | 0.00 | 0.00 | 65 | 1035.9 |
| 20260505230342 | 66 | 184 | 3.0 | 10.0 | 0.00 | 0.00 | 0.00 | 64 | 1035.6 |
| 20260505225839 | 66 | 262 | 2.0 | 4.0 | 0.00 | 0.00 | 0.00 | 64 | 1035.8 |
| 20260505225336 | 66 | 247 | 3.0 | 7.0 | 0.00 | 0.00 | 0.00 | 64 | 1035.7 |
| 20260505224830 | 66 | 243 | 4.0 | 7.0 | 0.00 | 0.00 | 0.00 | 64 | 1035.8 |
| 20260505224329 | 66 | 241 | 9.0 | 10.0 | 0.00 | 0.00 | 0.00 | 63 | 1035.5 |
| 20260505223826 | 67 | 226 | 5.0 | 6.0 | 0.00 | 0.00 | 0.00 | 63 | 1035.6 |
| 20260505223323 | 67 | 269 | 4.0 | 6.0 | 0.00 | 0.00 | 0.00 | 63 | 1035.8 |
| 20260505222818 | 67 | 306 | 3.0 | 7.0 | 0.00 | 0.00 | 0.00 | 63 | 1035.8 |
| 20260505222314 | 67 | 263 | 6.0 | 9.0 | 0.00 | 0.00 | 0.00 | 63 | 1035.9 |
| 20260505221812 | 67 | 319 | 2.0 | 5.0 | 0.00 | 0.00 | 0.00 | 62 | 1035.8 |
| 20260505221308 | 68 | 209 | 4.0 | 4.0 | 0.00 | 0.00 | 0.00 | 63 | 1035.7 |
| 20260505220806 | 68 | 171 | 2.0 | 6.0 | 0.00 | 0.00 | 0.00 | 62 | 1035.8 |
| 20260505220303 | 68 | 269 | 1.0 | 5.0 | 0.00 | 0.00 | 0.00 | 63 | 1035.7 |
| 20260505215801 | 68 | 223 | 6.0 | 7.0 | 0.00 | 0.00 | 0.00 | 62 | 1035.7 |
| 20260505215258 | 68 | 309 | 4.0 | 6.0 | 0.00 | 0.00 | 0.00 | 62 | 1035.8 |
| 20260505214756 | 69 | 272 | 4.0 | 4.0 | 0.00 | 0.00 | 0.00 | 62 | 1035.6 |
| 20260505214253 | 68 | 210 | 2.0 | 8.0 | 0.00 | 0.00 | 0.00 | 62 | 1035.4 |
| 20260505213750 | 69 | 68 | 1.0 | 6.0 | 0.00 | 0.00 | 0.00 | 62 | 1035.6 |
| 20260505213248 | 69 | 237 | 2.0 | 5.0 | 0.00 | 0.00 | 0.00 | 62 | 1035.4 |
| 20260505212743 | 70 | 228 | 5.0 | 7.0 | 0.00 | 0.00 | 0.00 | 61 | 1035.5 |
| 20260505212241 | 69 | 280 | 3.0 | 3.0 | 0.00 | 0.00 | 0.00 | 61 | 1035.5 |
| 20260505211738 | 70 | 222 | 5.0 | 12.0 | 0.00 | 0.00 | 0.00 | 60 | 1035.2 |
| 20260505211235 | 70 | 250 | 4.0 | 6.0 | 0.00 | 0.00 | 0.00 | 60 | 1035.3 |
| 20260505210731 | 69 | 215 | 2.0 | 6.0 | 0.00 | 0.00 | 0.00 | 60 | 1035.4 |
| 20260505210228 | 69 | 220 | 3.0 | 4.0 | 0.00 | 0.00 | 0.00 | 60 | 1035.6 |
| 20260505205726 | 69 | 207 | 6.0 | 10.0 | 0.00 | 0.00 | 0.00 | 60 | 1035.4 |
| 20260505205224 | 70 | 277 | 2.0 | 3.0 | 0.00 | 0.00 | 0.00 | 59 | 1035.4 |
| 20260505204720 | 70 | 285 | 2.0 | 5.0 | 0.00 | 0.00 | 0.00 | 60 | 1035.5 |
| 20260505204218 | 70 | 251 | 4.0 | 8.0 | 0.00 | 0.00 | 0.00 | 59 | 1035.4 |
| 20260505203715 | 70 | 217 | 3.0 | 7.0 | 0.00 | 0.00 | 0.00 | 59 | 1035.5 |
| 20260505203212 | 71 | 258 | 3.0 | 5.0 | 0.00 | 0.00 | 0.00 | 57 | 1035.4 |
| 20260505202707 | 71 | 216 | 5.0 | 6.0 | 0.00 | 0.00 | 0.00 | 57 | 1035.6 |
| 20260505202204 | 71 | 259 | 4.0 | 7.0 | 0.00 | 0.00 | 0.00 | 56 | 1035.3 |
| 20260505201700 | 72 | 224 | 3.0 | 10.0 | 0.00 | 0.00 | 0.00 | 56 | 1035.6 |
| 20260505201158 | 72 | 232 | 4.0 | 9.0 | 0.00 | 0.00 | 0.00 | 56 | 1035.6 |
| 20260505200656 | 73 | 235 | 4.0 | 11.0 | 0.00 | 0.00 | 0.00 | 55 | 1035.5 |
| 20260505200153 | 73 | 200 | 5.0 | 6.0 | 0.00 | 0.00 | 0.00 | 55 | 1035.7 |
| 20260505195648 | 72 | 236 | 4.0 | 11.0 | 0.00 | 0.00 | 0.00 | 55 | 1035.7 |
| 20260505195146 | 74 | 261 | 3.0 | 7.0 | 0.00 | 0.00 | 0.00 | 53 | 1035.8 |
| 20260505194643 | 73 | 71 | 3.0 | 10.0 | 0.00 | 0.00 | 0.00 | 56 | 1035.8 |
| 20260505194139 | 73 | 217 | 2.0 | 11.0 | 0.00 | 0.00 | 0.00 | 55 | 1035.7 |
| 20260505193636 | 73 | 296 | 4.0 | 9.0 | 0.00 | 0.00 | 0.00 | 56 | 1035.8 |
| 20260505193133 | 74 | 216 | 5.0 | 7.0 | 0.00 | 0.00 | 0.00 | 54 | 1035.7 |
| 20260505192632 | 75 | 229 | 3.0 | 7.0 | 0.00 | 0.00 | 0.00 | 54 | 1035.8 |
| 20260505192129 | 74 | 257 | 3.0 | 4.0 | 0.00 | 0.00 | 0.00 | 54 | 1035.9 |
| 20260505191627 | 76 | 194 | 4.0 | 5.0 | 0.00 | 0.00 | 0.00 | 52 | 1035.9 |
| 20260505191125 | 75 | 208 | 3.0 | 5.0 | 0.00 | 0.00 | 0.00 | 55 | 1036.0 |
| 20260505190620 | 75 | 230 | 5.0 | 6.0 | 0.00 | 0.00 | 0.00 | 55 | 1036.2 |
| 20260505190115 | 74 | 244 | 2.0 | 8.0 | 0.00 | 0.00 | 0.00 | 56 | 1036.3 |
| 20260505185613 | 75 | 293 | 2.0 | 6.0 | 0.00 | 0.00 | 0.00 | 54 | 1036.2 |
| 20260505185109 | 75 | 257 | 2.0 | 6.0 | 0.00 | 0.00 | 0.00 | 54 | 1036.3 |
| 20260505184605 | 76 | 257 | 4.0 | 4.0 | 0.00 | 0.00 | 0.00 | 52 | 1036.1 |
| 20260505184102 | 75 | 249 | 3.0 | 4.0 | 0.00 | 0.00 | 0.00 | 53 | 1036.3 |
| 20260505183559 | 75 | 249 | 3.0 | 5.0 | 0.00 | 0.00 | 0.00 | 55 | 1036.2 |
| 20260505183057 | 75 | 236 | 3.0 | 5.0 | 0.00 | 0.00 | 0.00 | 54 | 1036.1 |
| 20260505182552 | 75 | 240 | 3.0 | 6.0 | 0.00 | 0.00 | 0.00 | 53 | 1036.1 |
| 20260505182049 | 75 | 289 | 4.0 | 6.0 | 0.00 | 0.00 | 0.00 | 53 | 1036.3 |
| 20260505181546 | 76 | 209 | 1.0 | 2.0 | 0.00 | 0.00 | 0.00 | 54 | 1036.3 |
| 20260505181043 | 75 | 269 | 4.0 | 5.0 | 0.00 | 0.00 | 0.00 | 54 | 1036.3 |
| 20260505180539 | 76 | 253 | 5.0 | 5.0 | 0.00 | 0.00 | 0.00 | 52 | 1036.4 |
| 20260505180037 | 75 | 311 | 6.0 | 6.0 | 0.00 | 0.00 | 0.00 | 54 | 1036.2 |
| 20260505175537 | 74 | 217 | 3.0 | 7.0 | 0.00 | 0.00 | 0.00 | 54 | 1036.2 |
| 20260505175034 | 74 | 156 | 2.0 | 4.0 | 0.00 | 0.00 | 0.00 | 55 | 1036.4 |
| 20260505174531 | 74 | 222 | 5.0 | 8.0 | 0.00 | 0.00 | 0.00 | 55 | 1036.5 |
| 20260505174027 | 74 | 173 | 2.0 | 7.0 | 0.00 | 0.00 | 0.00 | 54 | 1036.8 |
| 20260505173524 | 74 | 229 | 4.0 | 8.0 | 0.00 | 0.00 | 0.00 | 55 | 1036.6 |
| 20260505173021 | 74 | 250 | 5.0 | 7.0 | 0.00 | 0.00 | 0.00 | 55 | 1036.7 |
| 20260505172519 | 74 | 200 | 6.0 | 6.0 | 0.00 | 0.00 | 0.00 | 54 | 1036.7 |
| 20260505172015 | 75 | 308 | 3.0 | 4.0 | 0.00 | 0.00 | 0.00 | 55 | 1036.6 |
| 20260505171510 | 74 | 251 | 2.0 | 7.0 | 0.00 | 0.00 | 0.00 | 56 | 1036.5 |
| 20260505171007 | 75 | 214 | 5.0 | 5.0 | 0.00 | 0.00 | 0.00 | 53 | 1036.6 |
| 20260505170504 | 74 | 284 | 2.0 | 4.0 | 0.00 | 0.00 | 0.00 | 55 | 1036.7 |
| 20260505165959 | 75 | 211 | 5.0 | 5.0 | 0.00 | 0.00 | 0.00 | 55 | 1036.8 |
| 20260505165450 | 74 | 224 | 4.0 | 5.0 | 0.00 | 0.00 | 0.00 | 55 | 1036.8 |
| 20260505164945 | 75 | 200 | 2.0 | 5.0 | 0.00 | 0.00 | 0.00 | 54 | 1036.8 |
| 20260505164442 | 73 | 237 | 3.0 | 4.0 | 0.00 | 0.00 | 0.00 | 55 | 1037.0 |
| 20260505163940 | 74 | 252 | 4.0 | 5.0 | 0.00 | 0.00 | 0.00 | 58 | 1036.9 |
| 20260505163438 | 72 | 230 | 2.0 | 6.0 | 0.00 | 0.00 | 0.00 | 59 | 1037.2 |
| 20260505162937 | 73 | 245 | 6.0 | 9.0 | 0.00 | 0.00 | 0.00 | 57 | 1037.1 |
| 20260505162433 | 73 | 282 | 4.0 | 5.0 | 0.00 | 0.00 | 0.00 | 57 | 1037.2 |
| 20260505161930 | 73 | 258 | 2.0 | 3.0 | 0.00 | 0.00 | 0.00 | 58 | 1037.4 |
| 20260505161426 | 74 | 253 | 2.0 | 4.0 | 0.00 | 0.00 | 0.00 | 55 | 1037.4 |
| 20260505160924 | 73 | 309 | 3.0 | 5.0 | 0.00 | 0.00 | 0.00 | 55 | 1037.5 |
| 20260505160422 | 75 | 250 | 1.0 | 2.0 | 0.00 | 0.00 | 0.00 | 57 | 1037.5 |
| 20260505152858 | 71 | 251 | 6.0 | 6.0 | 0.00 | 0.00 | 0.00 | 56 | 1037.8 |
| 20260505152355 | 72 | 217 | 7.0 | 9.0 | 0.00 | 0.00 | 0.00 | 56 | 1037.9 |
| 20260505151855 | 71 | 246 | 4.0 | 6.0 | 0.00 | 0.00 | 0.00 | 56 | 1037.8 |
| 20260505151352 | 71 | 311 | 3.0 | 5.0 | 0.00 | 0.00 | 0.00 | 57 | 1037.9 |
| 20260505150849 | 71 | 302 | 3.0 | 4.0 | 0.00 | 0.00 | 0.00 | 57 | 1038.1 |
| 20260505150347 | 72 | 244 | 4.0 | 4.0 | 0.00 | 0.00 | 0.00 | 57 | 1037.9 |